MPH467 EHAM-HRYR

Flight info

Callsign MPH467
Flight time 7h 52m
Altitude 31000
Route WOODY N872 NIK M624 BUB/N0481F330 M624 DIK N852 SUTAL DCT GTQ DCT POGOL DCT LASAT DCT MOROK DCT GILIR DCT GEVEA DCT INCUS DCT BALSI DCT RETNO DCT TUPOX DCT MTG DCT DIVKO DCT JUSQO DCT FIRRA DCT SUXER DCT KAMER UM998 CSO UA605 RIMEL/N0488F350 UA605 DJA UB730 DIR UG862 KOBNI/N0493F370 UG862 ONUDA UG655 GOVEL UT325 POGBA/N0495F360 UT325 EDBIV/N0494F370 UY476 GOM UB531 RANAG RANAG2A
Aircraft MD11/H-SDE1E2E3FGHIJ2J3J4J5M1RWXY/LB1D1

Departure

Time 2026-05-04 10:11
Airport Amsterdam Airport Schiphol (EHAM)

Arrival

Time 2026-05-04 18:04
Airport Kigali International Airport (HRYR)
Time Latitude Longitude Altitude Speed Heading
2026-05-04 09:56 52.29490 4.76103 7 ft 0 kts 148°
2026-05-04 10:04 52.29542 4.76028 9 ft 4 kts 109°
2026-05-04 10:04 52.29546 4.75996 9 ft 4 kts 65°
2026-05-04 10:04 52.29544 4.75989 9 ft 0 kts 59°
2026-05-04 10:08 52.29819 4.76710 7 ft 12 kts 57°
2026-05-04 10:08 52.29865 4.76812 6 ft 11 kts 47°
2026-05-04 10:08 52.29916 4.76894 8 ft 10 kts 46°
2026-05-04 10:08 52.29956 4.76977 7 ft 9 kts 55°
2026-05-04 10:09 52.29986 4.77051 6 ft 7 kts 58°
2026-05-04 10:09 52.30012 4.77119 6 ft 7 kts 58°
2026-05-04 10:09 52.30041 4.77194 6 ft 10 kts 58°
2026-05-04 10:09 52.30087 4.77313 8 ft 15 kts 58°
2026-05-04 10:10 52.30156 4.77464 6 ft 19 kts 44°
2026-05-04 10:10 52.30278 4.77515 7 ft 19 kts 330°
2026-05-04 10:10 52.30288 4.77315 4 ft 23 kts 244°
2026-05-04 10:10 52.30108 4.76837 6 ft 82 kts 238°
2026-05-04 10:11 52.29689 4.75751 5 ft 141 kts 238°
2026-05-04 10:11 52.29083 4.74180 20 ft 181 kts 237°
2026-05-04 10:11 52.28385 4.72481 457 ft 181 kts 234°
2026-05-04 10:11 52.27635 4.70866 1075 ft 182 kts 233°
2026-05-04 10:12 52.26866 4.69175 1584 ft 188 kts 222°
2026-05-04 10:12 52.25701 4.68373 2225 ft 184 kts 177°
2026-05-04 10:12 52.24467 4.68939 2798 ft 190 kts 157°
2026-05-04 10:12 52.23211 4.69882 3258 ft 210 kts 155°
2026-05-04 10:13 52.21783 4.71020 3426 ft 244 kts 154°
2026-05-04 10:13 52.20248 4.72295 3912 ft 252 kts 153°
2026-05-04 10:13 52.18668 4.73643 4545 ft 255 kts 152°
2026-05-04 10:13 52.17018 4.74734 5111 ft 260 kts 163°
2026-05-04 10:14 52.15179 4.75535 5277 ft 285 kts 167°
2026-05-04 10:14 52.13224 4.76289 5875 ft 291 kts 167°
2026-05-04 10:16 51.98958 4.81140 10239 ft 322 kts 186°
2026-05-04 10:16 51.96746 4.80314 10390 ft 336 kts 202°
2026-05-04 10:16 51.94543 4.78745 10666 ft 349 kts 207°
2026-05-04 10:16 51.92366 4.76971 11261 ft 353 kts 208°
2026-05-04 10:17 51.90170 4.75155 11912 ft 355 kts 208°
2026-05-04 10:17 51.87955 4.73346 12545 ft 358 kts 207°
2026-05-04 10:19 51.71840 4.60678 16590 ft 379 kts 207°
2026-05-04 10:19 51.69450 4.58823 17095 ft 383 kts 207°
2026-05-04 10:19 51.67036 4.56954 17633 ft 386 kts 207°
2026-05-04 10:19 51.64602 4.55077 18138 ft 389 kts 207°
2026-05-04 10:20 51.62153 4.53192 18626 ft 391 kts 207°
2026-05-04 10:20 51.59693 4.51299 19138 ft 392 kts 206°
2026-05-04 10:20 51.57238 4.49411 19653 ft 393 kts 206°
2026-05-04 10:20 51.54796 4.47534 20154 ft 393 kts 206°
2026-05-04 10:21 51.52321 4.45633 20653 ft 394 kts 206°
2026-05-04 10:21 51.49847 4.43734 21158 ft 395 kts 206°
2026-05-04 10:21 51.47356 4.41824 21582 ft 398 kts 206°
2026-05-04 10:21 51.44847 4.39903 22048 ft 400 kts 206°
2026-05-04 10:22 51.39819 4.36066 23113 ft 402 kts 206°
2026-05-04 10:22 51.37277 4.34136 23588 ft 404 kts 206°
2026-05-04 10:22 51.34741 4.32211 23988 ft 404 kts 206°
2026-05-04 10:23 51.32173 4.30342 24350 ft 406 kts 200°
2026-05-04 10:23 51.29420 4.29353 24760 ft 408 kts 186°
2026-05-04 10:25 51.10728 4.41924 27281 ft 429 kts 163°
2026-05-04 10:25 51.07943 4.43643 27619 ft 429 kts 164°
2026-05-04 10:25 51.05141 4.45298 27946 ft 430 kts 165°
2026-05-04 10:25 51.02328 4.46929 28287 ft 432 kts 165°
2026-05-04 10:26 50.99499 4.48559 28595 ft 433 kts 165°
2026-05-04 10:26 50.96657 4.50197 28903 ft 435 kts 165°
2026-05-04 10:26 50.93809 4.51843 29213 ft 436 kts 165°
2026-05-04 10:26 50.90993 4.53728 29497 ft 442 kts 158°
2026-05-04 10:27 50.88382 4.56380 29788 ft 453 kts 147°
2026-05-04 10:27 50.86005 4.59720 30056 ft 460 kts 142°
2026-05-04 10:27 50.83752 4.63358 30286 ft 464 kts 140°
2026-05-04 10:27 50.81529 4.67084 30514 ft 467 kts 140°
2026-05-04 10:28 50.79283 4.70821 30621 ft 470 kts 140°
2026-05-04 10:28 50.76999 4.74545 30742 ft 473 kts 141°
2026-05-04 10:28 50.74690 4.78234 30944 ft 474 kts 141°
2026-05-04 10:29 50.69966 4.85631 31003 ft 479 kts 141°
2026-05-04 10:29 50.65239 4.92978 31009 ft 476 kts 142°
2026-05-04 10:30 50.60513 5.00305 31011 ft 477 kts 142°
2026-05-04 10:30 50.55797 5.07611 31016 ft 477 kts 142°
2026-05-04 10:31 50.51064 5.14925 31014 ft 478 kts 141°
2026-05-04 10:32 50.34461 5.40420 31011 ft 478 kts 141°
2026-05-04 10:33 50.30468 5.46509 31011 ft 478 kts 141°
2026-05-04 10:33 50.25738 5.53706 30986 ft 476 kts 142°
2026-05-04 10:34 50.20993 5.60905 31009 ft 476 kts 142°
2026-05-04 10:34 50.16238 5.68095 31009 ft 476 kts 142°
2026-05-04 10:35 50.11471 5.75284 31009 ft 475 kts 142°
2026-05-04 10:35 50.06708 5.82420 31012 ft 476 kts 142°
2026-05-04 10:36 50.04337 5.85942 31169 ft 476 kts 142°
2026-05-04 10:36 50.01925 5.89529 31488 ft 473 kts 142°
2026-05-04 10:36 49.99584 5.93018 31684 ft 472 kts 142°
2026-05-04 10:36 49.97216 5.96549 31865 ft 472 kts 142°
2026-05-04 10:37 49.94845 6.00082 32050 ft 472 kts 142°
2026-05-04 10:37 49.92471 6.03619 32246 ft 472 kts 142°
2026-05-04 10:37 49.90105 6.07144 32430 ft 472 kts 142°
2026-05-04 10:37 49.87719 6.10649 32619 ft 469 kts 145°
2026-05-04 10:39 49.70789 6.23502 33029 ft 450 kts 162°
2026-05-04 10:39 49.67905 6.25392 33032 ft 451 kts 162°
2026-05-04 10:40 49.62179 6.29190 33031 ft 451 kts 162°
2026-05-04 10:40 49.56393 6.32938 33017 ft 453 kts 162°
2026-05-04 10:41 49.50565 6.36687 33028 ft 453 kts 162°
2026-05-04 10:41 49.44759 6.40483 33025 ft 454 kts 161°
2026-05-04 10:42 49.38976 6.44423 33024 ft 454 kts 161°
2026-05-04 10:42 49.33202 6.48380 33015 ft 454 kts 161°
2026-05-04 10:43 49.27428 6.52320 33022 ft 454 kts 161°
2026-05-04 10:45 49.04347 6.67930 33023 ft 459 kts 161°
2026-05-04 10:45 48.98406 6.71333 33023 ft 451 kts 172°
2026-05-04 10:46 48.92236 6.72047 33026 ft 443 kts 186°
2026-05-04 10:46 48.86089 6.71448 33023 ft 443 kts 186°
2026-05-04 10:47 48.79931 6.70958 33027 ft 443 kts 185°
2026-05-04 10:47 48.73753 6.70654 33031 ft 444 kts 185°
2026-05-04 10:49 48.49098 6.69703 33034 ft 444 kts 184°
2026-05-04 10:50 48.42956 6.69466 33026 ft 443 kts 184°
2026-05-04 10:52 48.18286 6.68519 33026 ft 443 kts 184°
2026-05-04 10:52 48.12123 6.68284 33031 ft 443 kts 184°
2026-05-04 10:54 47.87495 6.67348 33034 ft 443 kts 184°
2026-05-04 10:56 47.62844 6.66419 33033 ft 444 kts 184°
2026-05-04 10:57 47.56679 6.66188 33034 ft 445 kts 184°
2026-05-04 10:57 47.50485 6.65957 33032 ft 445 kts 184°
2026-05-04 10:58 47.44323 6.65466 33029 ft 443 kts 190°
2026-05-04 10:58 47.38429 6.63010 33030 ft 439 kts 206°
2026-05-04 10:59 47.33325 6.58137 33037 ft 440 kts 219°
2026-05-04 10:59 47.28722 6.52181 33038 ft 440 kts 221°
2026-05-04 11:00 47.24173 6.46224 33037 ft 440 kts 220°
2026-05-04 11:02 47.04929 6.24325 33032 ft 439 kts 200°
2026-05-04 11:05 46.59036 6.17636 33038 ft 442 kts 187°
2026-05-04 11:06 46.52908 6.16824 33041 ft 442 kts 187°
2026-05-04 11:06 46.46821 6.16019 33042 ft 442 kts 187°
2026-05-04 11:10 46.04360 6.08574 33079 ft 442 kts 191°
2026-05-04 11:12 45.79935 6.03162 33071 ft 445 kts 191°
2026-05-04 11:12 45.73869 6.01819 33075 ft 446 kts 191°
2026-05-04 11:13 45.67728 6.00461 33082 ft 446 kts 191°
2026-05-04 11:13 45.61588 5.99106 33073 ft 446 kts 191°
2026-05-04 11:14 45.55448 5.97754 33079 ft 447 kts 191°
2026-05-04 11:16 45.31060 5.90976 33063 ft 446 kts 194°
2026-05-04 11:16 45.24995 5.89059 33063 ft 448 kts 194°
2026-05-04 11:17 45.18906 5.87152 33056 ft 448 kts 194°
2026-05-04 11:19 44.95548 5.79883 33043 ft 450 kts 195°
2026-05-04 11:19 44.88456 5.77688 33066 ft 449 kts 195°
2026-05-04 11:20 44.83351 5.76112 33061 ft 448 kts 195°
2026-05-04 11:20 44.77257 5.74233 33067 ft 448 kts 195°
2026-05-04 11:22 44.52968 5.66807 33081 ft 446 kts 195°
2026-05-04 11:23 44.46884 5.64952 33080 ft 445 kts 195°
2026-05-04 11:25 44.26357 5.56125 33080 ft 441 kts 205°
2026-05-04 11:25 44.20664 5.52928 33066 ft 439 kts 204°
2026-05-04 11:27 43.95061 5.38939 33054 ft 439 kts 204°
2026-05-04 11:28 43.89372 5.35857 33034 ft 438 kts 205°
2026-05-04 11:28 43.83742 5.32807 33054 ft 436 kts 204°
2026-05-04 11:29 43.78096 5.29752 33032 ft 434 kts 204°
2026-05-04 11:29 43.72467 5.26711 33031 ft 435 kts 204°
2026-05-04 11:33 43.33644 5.04333 33020 ft 428 kts 217°
2026-05-04 11:33 43.28797 4.99609 33020 ft 428 kts 218°
2026-05-04 11:34 43.23939 4.94895 33043 ft 428 kts 217°
2026-05-04 11:34 43.19055 4.90243 33022 ft 427 kts 217°
2026-05-04 11:35 43.14094 4.85770 33018 ft 429 kts 212°
2026-05-04 11:35 43.08597 4.82515 33012 ft 435 kts 200°
2026-05-04 11:36 43.02574 4.81177 33017 ft 445 kts 187°
2026-05-04 11:36 42.96327 4.81866 33017 ft 456 kts 174°
2026-05-04 11:37 42.90173 4.84303 33004 ft 464 kts 168°
2026-05-04 11:37 42.84068 4.87204 33014 ft 464 kts 168°
2026-05-04 11:38 42.77945 4.90042 33023 ft 464 kts 168°
2026-05-04 11:38 42.71779 4.92538 33021 ft 460 kts 173°
2026-05-04 11:39 42.65610 4.94518 33019 ft 458 kts 174°
2026-05-04 11:41 42.43709 5.01419 33019 ft 464 kts 174°
2026-05-04 11:41 42.37426 5.03416 33017 ft 464 kts 174°
2026-05-04 11:42 42.31142 5.05409 33020 ft 464 kts 174°
2026-05-04 11:42 42.24861 5.07396 33018 ft 463 kts 174°
2026-05-04 11:43 42.18623 5.09365 33019 ft 463 kts 174°
2026-05-04 11:43 42.12363 5.11337 33021 ft 463 kts 174°
2026-05-04 11:44 42.06081 5.13312 33005 ft 462 kts 174°
2026-05-04 11:44 41.99830 5.15273 33017 ft 461 kts 174°
2026-05-04 11:45 41.93577 5.17229 33016 ft 461 kts 175°
2026-05-04 11:45 41.87329 5.19170 33016 ft 461 kts 175°
2026-05-04 11:46 41.81077 5.21113 33024 ft 461 kts 175°
2026-05-04 11:46 41.74826 5.23057 33024 ft 461 kts 175°
2026-05-04 11:47 41.68625 5.24983 33017 ft 461 kts 175°
2026-05-04 11:47 41.62372 5.26926 33010 ft 460 kts 174°
2026-05-04 11:48 41.56172 5.29222 33013 ft 463 kts 171°
2026-05-04 11:48 41.49992 5.31770 33018 ft 464 kts 171°
2026-05-04 11:49 41.43829 5.34316 33007 ft 464 kts 171°
2026-05-04 11:49 41.37676 5.36827 33013 ft 465 kts 172°
2026-05-04 11:50 41.31492 5.39334 33012 ft 464 kts 172°
2026-05-04 11:50 41.25319 5.41830 33016 ft 464 kts 172°
2026-05-04 11:51 41.19141 5.44324 33004 ft 464 kts 172°
2026-05-04 11:51 41.12952 5.46815 33025 ft 465 kts 172°
2026-05-04 11:52 41.06760 5.49306 33014 ft 465 kts 172°
2026-05-04 11:52 41.00567 5.51792 33020 ft 465 kts 172°
2026-05-04 11:53 40.94368 5.54272 33017 ft 468 kts 172°
2026-05-04 11:53 40.88132 5.56765 33015 ft 467 kts 172°
2026-05-04 11:55 40.63164 5.66671 33018 ft 471 kts 172°
2026-05-04 11:56 40.56891 5.69157 33022 ft 471 kts 172°
2026-05-04 11:56 40.50656 5.71620 33009 ft 471 kts 172°
2026-05-04 11:57 40.44349 5.74104 33020 ft 474 kts 172°
2026-05-04 11:57 40.38033 5.76590 33020 ft 474 kts 172°
2026-05-04 11:58 40.31718 5.79072 33008 ft 473 kts 171°
2026-05-04 11:58 40.25397 5.81550 33020 ft 473 kts 171°
2026-05-04 11:59 40.19093 5.84016 33019 ft 473 kts 171°
2026-05-04 11:59 40.12754 5.86110 33019 ft 466 kts 177°
2026-05-04 12:00 40.06382 5.87443 33015 ft 462 kts 179°
2026-05-04 12:00 40.00034 5.88659 33019 ft 461 kts 179°
2026-05-04 12:01 39.93717 5.89918 33018 ft 462 kts 179°
2026-05-04 12:02 39.71490 5.94462 33024 ft 462 kts 178°
2026-05-04 12:03 39.65132 5.95757 32998 ft 462 kts 178°
2026-05-04 12:03 39.59837 5.96831 33021 ft 464 kts 178°
2026-05-04 12:04 39.53447 5.98128 33022 ft 464 kts 178°
2026-05-04 12:04 39.47073 5.99421 33023 ft 464 kts 178°
2026-05-04 12:05 39.40682 6.00713 33017 ft 464 kts 178°
2026-05-04 12:05 39.34311 6.01997 33022 ft 466 kts 178°
2026-05-04 12:06 39.27902 6.03283 33025 ft 466 kts 178°
2026-05-04 12:06 39.21498 6.04567 33025 ft 466 kts 178°
2026-05-04 12:07 39.15085 6.05851 33022 ft 468 kts 177°
2026-05-04 12:07 39.08628 6.07143 33027 ft 470 kts 177°
2026-05-04 12:08 39.02166 6.08438 33027 ft 470 kts 177°
2026-05-04 12:08 38.95696 6.09726 33027 ft 473 kts 177°
2026-05-04 12:09 38.89180 6.11018 33036 ft 478 kts 177°
2026-05-04 12:09 38.82620 6.12324 33032 ft 476 kts 177°
2026-05-04 12:10 38.76062 6.13627 33044 ft 477 kts 177°
2026-05-04 12:10 38.69516 6.14924 33033 ft 476 kts 177°
2026-05-04 12:11 38.62967 6.16219 33038 ft 476 kts 177°
2026-05-04 12:11 38.56460 6.17502 33048 ft 475 kts 177°
2026-05-04 12:12 38.49925 6.18789 33040 ft 475 kts 177°
2026-05-04 12:12 38.43388 6.20074 33041 ft 475 kts 177°
2026-05-04 12:14 38.17262 6.25185 33041 ft 475 kts 177°
2026-05-04 12:15 38.10731 6.26450 33040 ft 475 kts 177°
2026-05-04 12:15 38.04200 6.27717 33040 ft 475 kts 177°
2026-05-04 12:16 37.97665 6.28984 33037 ft 476 kts 177°
2026-05-04 12:16 37.91098 6.30256 33041 ft 477 kts 177°
2026-05-04 12:17 37.84532 6.31526 33040 ft 477 kts 177°
2026-05-04 12:17 37.78004 6.32787 33020 ft 477 kts 177°
2026-05-04 12:18 37.71421 6.34054 33035 ft 480 kts 177°
2026-05-04 12:18 37.64823 6.35323 33032 ft 479 kts 177°
2026-05-04 12:19 37.58225 6.36591 33040 ft 479 kts 177°
2026-05-04 12:19 37.51629 6.37855 33033 ft 480 kts 177°
2026-05-04 12:20 37.45012 6.39120 33033 ft 481 kts 177°
2026-05-04 12:20 37.38388 6.40386 33034 ft 481 kts 177°
2026-05-04 12:21 37.31768 6.41644 33030 ft 481 kts 177°
2026-05-04 12:21 37.25154 6.42897 33028 ft 481 kts 177°
2026-05-04 12:22 37.18529 6.44154 33030 ft 481 kts 177°
2026-05-04 12:22 37.11918 6.45407 33027 ft 481 kts 177°
2026-05-04 12:23 37.05337 6.46653 32999 ft 481 kts 177°
2026-05-04 12:23 36.98676 6.47911 33029 ft 482 kts 177°
2026-05-04 12:24 36.92118 6.49147 33030 ft 481 kts 177°
2026-05-04 12:24 36.85492 6.50395 33037 ft 482 kts 177°
2026-05-04 12:25 36.78861 6.51640 33027 ft 482 kts 177°
2026-05-04 12:25 36.72231 6.52883 33038 ft 483 kts 176°
2026-05-04 12:26 36.65595 6.54128 33041 ft 482 kts 176°
2026-05-04 12:26 36.58958 6.55369 33045 ft 482 kts 176°
2026-05-04 12:27 36.52322 6.56606 33086 ft 483 kts 176°
2026-05-04 12:27 36.45673 6.57838 33112 ft 483 kts 176°
2026-05-04 12:28 36.39022 6.59073 33134 ft 483 kts 176°
2026-05-04 12:28 36.32363 6.60309 33140 ft 483 kts 176°
2026-05-04 12:29 36.25719 6.61739 33138 ft 487 kts 174°
2026-05-04 12:29 36.19071 6.63448 33137 ft 487 kts 173°
2026-05-04 12:30 36.12487 6.65169 33118 ft 487 kts 173°
2026-05-04 12:30 36.05852 6.66876 33082 ft 487 kts 173°
2026-05-04 12:31 35.99209 6.68569 33074 ft 488 kts 173°
2026-05-04 12:31 35.92560 6.70259 33064 ft 488 kts 173°
2026-05-04 12:32 35.82578 6.72791 33061 ft 488 kts 173°
2026-05-04 12:33 35.75926 6.74476 33066 ft 488 kts 173°
2026-05-04 12:33 35.69278 6.76157 33060 ft 488 kts 173°
2026-05-04 12:34 35.62622 6.77837 33064 ft 488 kts 173°
2026-05-04 12:34 35.55976 6.79511 33046 ft 488 kts 173°
2026-05-04 12:35 35.49328 6.81183 33077 ft 487 kts 173°
2026-05-04 12:35 35.42681 6.82845 33064 ft 487 kts 173°
2026-05-04 12:36 35.36078 6.84495 33060 ft 487 kts 173°
2026-05-04 12:36 35.29368 6.86172 33074 ft 490 kts 173°
2026-05-04 12:37 35.22745 6.87828 33093 ft 489 kts 173°
2026-05-04 12:37 35.16037 6.89501 33094 ft 489 kts 173°
2026-05-04 12:38 35.09412 6.91150 33104 ft 489 kts 173°
2026-05-04 12:38 35.02745 6.92808 33096 ft 488 kts 173°
2026-05-04 12:39 34.96125 6.94451 33104 ft 488 kts 173°
2026-05-04 12:39 34.89467 6.96100 33089 ft 488 kts 173°
2026-05-04 12:40 34.82807 6.97746 33087 ft 488 kts 173°
2026-05-04 12:40 34.76157 6.99405 33082 ft 488 kts 173°
2026-05-04 12:41 34.69504 7.01088 33081 ft 487 kts 173°
2026-05-04 12:41 34.62872 7.02767 33071 ft 487 kts 173°
2026-05-04 12:42 34.56230 7.04445 33074 ft 487 kts 173°
2026-05-04 12:42 34.49591 7.06119 33063 ft 487 kts 173°
2026-05-04 12:43 34.42945 7.07792 33066 ft 487 kts 173°
2026-05-04 12:43 34.36308 7.09459 33063 ft 487 kts 173°
2026-05-04 12:44 34.29714 7.11114 33063 ft 487 kts 173°
2026-05-04 12:44 34.23072 7.12778 33060 ft 487 kts 173°
2026-05-04 12:45 34.16435 7.14437 33063 ft 487 kts 173°
2026-05-04 12:45 34.09806 7.16092 33063 ft 487 kts 173°
2026-05-04 12:46 34.03178 7.17744 33061 ft 487 kts 173°
2026-05-04 12:46 33.96546 7.19392 33058 ft 486 kts 173°
2026-05-04 12:47 33.89915 7.21033 33060 ft 486 kts 173°
2026-05-04 12:47 33.83285 7.22675 33059 ft 486 kts 173°
2026-05-04 12:48 33.76651 7.24318 33063 ft 486 kts 173°
2026-05-04 12:48 33.70545 7.25828 33055 ft 488 kts 173°
2026-05-04 12:49 33.65008 7.27194 33066 ft 489 kts 173°
2026-05-04 12:49 33.58341 7.28839 33065 ft 489 kts 173°
2026-05-04 12:50 33.51678 7.30480 33059 ft 489 kts 173°
2026-05-04 12:50 33.45014 7.32119 33050 ft 489 kts 173°
2026-05-04 12:51 33.38335 7.33757 33063 ft 490 kts 173°
2026-05-04 12:51 33.31658 7.35394 33061 ft 490 kts 173°
2026-05-04 12:52 33.25012 7.37020 33054 ft 490 kts 173°
2026-05-04 12:52 33.18336 7.38651 33059 ft 490 kts 173°
2026-05-04 12:53 33.11657 7.40274 33053 ft 490 kts 173°
2026-05-04 12:53 33.04967 7.41898 33061 ft 490 kts 173°
2026-05-04 12:54 32.98319 7.43514 33051 ft 490 kts 173°
2026-05-04 12:54 32.91631 7.45138 33034 ft 490 kts 174°
2026-05-04 12:55 32.84936 7.46760 33046 ft 491 kts 173°
2026-05-04 12:55 32.78236 7.48382 33047 ft 491 kts 174°
2026-05-04 12:56 32.71539 7.50000 33043 ft 491 kts 174°
2026-05-04 12:56 32.64885 7.51606 33030 ft 491 kts 174°
2026-05-04 12:57 32.58167 7.53224 33040 ft 492 kts 174°
2026-05-04 12:57 32.51458 7.54838 33041 ft 492 kts 174°
2026-05-04 12:58 32.44740 7.56451 33040 ft 492 kts 174°
2026-05-04 12:58 32.38024 7.58062 33027 ft 492 kts 174°
2026-05-04 12:59 32.31298 7.59668 33035 ft 493 kts 174°
2026-05-04 12:59 32.24573 7.61271 33036 ft 493 kts 174°
2026-05-04 13:00 32.17848 7.62875 33036 ft 493 kts 174°
2026-05-04 13:00 32.11132 7.64476 33017 ft 493 kts 174°
2026-05-04 13:01 32.04401 7.66078 33031 ft 493 kts 174°
2026-05-04 13:01 31.97677 7.67676 33026 ft 493 kts 174°
2026-05-04 13:02 31.90990 7.69263 33029 ft 493 kts 174°
2026-05-04 13:02 31.84260 7.70857 33027 ft 493 kts 174°
2026-05-04 13:03 31.77526 7.72450 33027 ft 494 kts 174°
2026-05-04 13:03 31.70785 7.74064 33028 ft 494 kts 174°
2026-05-04 13:04 31.64048 7.75693 33027 ft 494 kts 174°
2026-05-04 13:04 31.57315 7.77322 33027 ft 494 kts 174°
2026-05-04 13:05 31.50573 7.78949 33023 ft 495 kts 174°
2026-05-04 13:05 31.43822 7.80575 33023 ft 495 kts 174°
2026-05-04 13:06 31.37070 7.82199 33023 ft 495 kts 174°
2026-05-04 13:06 31.30322 7.83819 33025 ft 495 kts 174°
2026-05-04 13:07 31.23570 7.85438 33020 ft 496 kts 174°
2026-05-04 13:07 31.16856 7.87046 33025 ft 495 kts 174°
2026-05-04 13:08 31.10101 7.88661 33010 ft 496 kts 174°
2026-05-04 13:08 31.03338 7.90276 33020 ft 496 kts 174°
2026-05-04 13:09 30.96612 7.91879 33013 ft 498 kts 174°
2026-05-04 13:09 30.89804 7.93493 33012 ft 500 kts 174°
2026-05-04 13:10 30.82988 7.95111 33008 ft 500 kts 174°
2026-05-04 13:10 30.76171 7.96728 33009 ft 499 kts 174°
2026-05-04 13:11 30.69369 7.98341 32995 ft 498 kts 174°
2026-05-04 13:11 30.62559 7.99952 33008 ft 501 kts 174°
2026-05-04 13:12 30.55769 8.01557 33009 ft 501 kts 174°
2026-05-04 13:12 30.48938 8.03170 33001 ft 501 kts 174°
2026-05-04 13:13 30.42110 8.04779 33002 ft 501 kts 174°
2026-05-04 13:13 30.35281 8.06386 32997 ft 501 kts 174°
2026-05-04 13:14 30.28443 8.07993 33000 ft 501 kts 174°
2026-05-04 13:14 30.21654 8.09586 32995 ft 501 kts 174°
2026-05-04 13:15 30.14825 8.11186 32996 ft 501 kts 174°
2026-05-04 13:15 30.07979 8.12782 32996 ft 503 kts 174°
2026-05-04 13:16 30.01105 8.14401 32991 ft 504 kts 174°
2026-05-04 13:16 29.94234 8.16036 32984 ft 504 kts 174°
2026-05-04 13:17 29.87364 8.17670 32986 ft 504 kts 174°
2026-05-04 13:17 29.80482 8.19302 32976 ft 505 kts 174°
2026-05-04 13:18 29.73588 8.20935 32987 ft 505 kts 174°
2026-05-04 13:18 29.66692 8.22565 32976 ft 505 kts 174°
2026-05-04 13:19 29.59856 8.24179 32974 ft 505 kts 174°
2026-05-04 13:19 29.52921 8.25814 32967 ft 506 kts 174°
2026-05-04 13:20 29.46013 8.27440 32975 ft 507 kts 174°
2026-05-04 13:20 29.39110 8.29064 32964 ft 507 kts 174°
2026-05-04 13:21 29.32245 8.30676 32957 ft 507 kts 174°
2026-05-04 13:21 29.25332 8.32297 32959 ft 507 kts 174°
2026-05-04 13:22 29.18395 8.33914 32951 ft 509 kts 174°
2026-05-04 13:22 29.11460 8.35533 32952 ft 509 kts 174°
2026-05-04 13:23 29.04509 8.37156 32950 ft 509 kts 174°
2026-05-04 13:23 28.97564 8.38776 32928 ft 509 kts 174°
2026-05-04 13:24 28.90629 8.40389 32952 ft 512 kts 174°
2026-05-04 13:24 28.83651 8.42012 32948 ft 512 kts 174°
2026-05-04 13:25 28.73212 8.44437 32952 ft 512 kts 174°
2026-05-04 13:25 28.66220 8.46057 32948 ft 513 kts 175°
2026-05-04 13:26 28.59205 8.47679 32945 ft 514 kts 175°
2026-05-04 13:26 28.52179 8.49304 32948 ft 514 kts 175°
2026-05-04 13:27 28.45174 8.50921 32946 ft 514 kts 175°
2026-05-04 13:27 28.38156 8.52535 32926 ft 514 kts 175°
2026-05-04 13:28 28.31119 8.54148 32942 ft 517 kts 175°
2026-05-04 13:28 28.24059 8.55770 32938 ft 517 kts 175°
2026-05-04 13:29 28.17001 8.57391 32937 ft 517 kts 175°
2026-05-04 13:29 28.09996 8.58998 32933 ft 517 kts 175°
2026-05-04 13:30 28.02923 8.60630 32928 ft 519 kts 175°
2026-05-04 13:30 27.95844 8.62270 32929 ft 519 kts 175°
2026-05-04 13:31 27.88759 8.63912 32924 ft 519 kts 175°
2026-05-04 13:31 27.81682 8.65548 32930 ft 519 kts 175°
2026-05-04 13:32 27.74601 8.67181 32922 ft 521 kts 175°
2026-05-04 13:32 27.67492 8.68818 32920 ft 521 kts 175°
2026-05-04 13:33 27.60383 8.70455 32920 ft 521 kts 175°
2026-05-04 13:33 27.53272 8.72089 32915 ft 521 kts 174°
2026-05-04 13:34 27.46166 8.73720 32915 ft 521 kts 174°
2026-05-04 13:34 27.39059 8.75349 32907 ft 521 kts 174°
2026-05-04 13:35 27.28401 8.77788 32895 ft 521 kts 174°
2026-05-04 13:36 27.21334 8.79397 32901 ft 521 kts 174°
2026-05-04 13:36 27.14178 8.81026 32893 ft 523 kts 174°
2026-05-04 13:37 27.08247 8.82377 32894 ft 523 kts 174°
2026-05-04 13:37 27.01113 8.84001 32887 ft 523 kts 174°
2026-05-04 13:38 26.93986 8.85631 32899 ft 523 kts 174°
2026-05-04 13:38 26.86848 8.87266 32901 ft 523 kts 174°
2026-05-04 13:39 26.79733 8.88894 32912 ft 525 kts 174°
2026-05-04 13:39 26.72567 8.90534 32911 ft 525 kts 174°
2026-05-04 13:40 26.65441 8.92161 32864 ft 525 kts 174°
2026-05-04 13:40 26.58283 8.93794 32843 ft 525 kts 174°
2026-05-04 13:41 26.51109 8.95426 32867 ft 527 kts 174°
2026-05-04 13:41 26.43921 8.97062 32863 ft 527 kts 174°
2026-05-04 13:42 26.33144 8.99510 32862 ft 527 kts 174°
2026-05-04 13:42 26.25950 9.01141 32864 ft 527 kts 174°
2026-05-04 13:43 26.18753 9.02770 32858 ft 528 kts 174°
2026-05-04 13:43 26.11546 9.04395 32858 ft 528 kts 174°
2026-05-04 13:44 26.04336 9.06021 32861 ft 529 kts 174°
2026-05-04 13:44 25.97130 9.07653 32837 ft 528 kts 174°
2026-05-04 13:45 25.89919 9.09299 32868 ft 529 kts 174°
2026-05-04 13:45 25.82703 9.10948 32869 ft 529 kts 174°
2026-05-04 13:46 25.75541 9.12583 32865 ft 529 kts 174°
2026-05-04 13:46 25.68319 9.14228 32878 ft 529 kts 174°
2026-05-04 13:47 25.61096 9.15870 32871 ft 530 kts 173°
2026-05-04 13:47 25.53858 9.17513 32891 ft 531 kts 173°
2026-05-04 13:48 25.46622 9.19156 32910 ft 530 kts 173°
2026-05-04 13:48 25.39388 9.20795 32910 ft 531 kts 173°
2026-05-04 13:49 25.32152 9.22433 32928 ft 531 kts 173°
2026-05-04 13:49 25.24910 9.24070 32927 ft 531 kts 173°
2026-05-04 13:50 25.17677 9.25702 32948 ft 531 kts 173°
2026-05-04 13:50 25.10422 9.27334 32948 ft 531 kts 173°
2026-05-04 13:51 25.03224 9.28952 32934 ft 531 kts 173°
2026-05-04 13:51 24.95979 9.30582 32959 ft 531 kts 173°
2026-05-04 13:52 24.85112 9.33023 32951 ft 531 kts 173°
2026-05-04 13:53 24.77869 9.34647 32954 ft 531 kts 173°
2026-05-04 13:53 24.70621 9.36271 32928 ft 531 kts 173°
2026-05-04 13:54 24.59778 9.38696 32984 ft 532 kts 173°
2026-05-04 13:55 24.48938 9.41116 33046 ft 532 kts 173°
2026-05-04 13:55 24.38057 9.43542 33114 ft 532 kts 173°
2026-05-04 13:56 24.30802 9.45152 33107 ft 532 kts 173°
2026-05-04 13:56 24.23706 9.47562 33116 ft 540 kts 158°
2026-05-04 13:57 24.20399 9.49525 33108 ft 543 kts 152°
2026-05-04 13:58 24.07610 9.58437 32997 ft 543 kts 152°
2026-05-04 13:58 23.97866 9.64749 32903 ft 542 kts 153°
2026-05-04 13:59 23.91348 9.68912 32912 ft 543 kts 153°
2026-05-04 14:00 23.81575 9.75168 32901 ft 543 kts 152°
2026-05-04 14:00 23.71810 9.81420 32900 ft 542 kts 152°
2026-05-04 14:01 23.65301 9.85580 32896 ft 541 kts 153°
2026-05-04 14:02 23.55631 9.91750 32889 ft 540 kts 153°
2026-05-04 14:02 23.49122 9.95887 32891 ft 540 kts 153°
2026-05-04 14:03 23.42626 10.00012 32870 ft 541 kts 153°
2026-05-04 14:03 23.36131 10.04139 32884 ft 540 kts 153°
2026-05-04 14:04 23.26394 10.10321 32886 ft 540 kts 153°
2026-05-04 14:04 23.19894 10.14441 32877 ft 540 kts 153°
2026-05-04 14:05 23.10204 10.20575 32885 ft 540 kts 153°
2026-05-04 14:06 23.03719 10.24675 32873 ft 539 kts 153°
2026-05-04 14:06 22.97238 10.28766 32876 ft 539 kts 153°
2026-05-04 14:07 22.90750 10.32858 32874 ft 539 kts 153°
2026-05-04 14:07 22.84268 10.36941 32871 ft 539 kts 153°
2026-05-04 14:08 22.77776 10.41018 32874 ft 539 kts 153°
2026-05-04 14:08 22.71296 10.45082 32869 ft 538 kts 153°
2026-05-04 14:09 22.61658 10.51185 32862 ft 538 kts 152°
2026-05-04 14:10 22.52126 10.57570 32867 ft 539 kts 151°
2026-05-04 14:10 22.45769 10.61854 32866 ft 539 kts 151°
2026-05-04 14:11 22.39391 10.66130 32858 ft 539 kts 152°
2026-05-04 14:11 22.29816 10.72528 32855 ft 539 kts 152°
2026-05-04 14:12 22.23433 10.76788 32857 ft 539 kts 152°
2026-05-04 14:13 22.13865 10.83166 32848 ft 539 kts 152°
2026-05-04 14:13 22.07484 10.87414 32838 ft 539 kts 152°
2026-05-04 14:14 22.01085 10.91670 32841 ft 540 kts 152°
2026-05-04 14:14 21.91497 10.98035 32839 ft 540 kts 152°
2026-05-04 14:15 21.78732 11.06479 32839 ft 540 kts 152°
2026-05-04 14:16 21.69132 11.12831 32838 ft 540 kts 152°
2026-05-04 14:17 21.59529 11.19175 32834 ft 540 kts 152°
2026-05-04 14:18 21.50165 11.25351 32834 ft 540 kts 152°
2026-05-04 14:19 21.37353 11.33786 32830 ft 539 kts 152°
2026-05-04 14:19 21.31011 11.37955 32835 ft 539 kts 152°
2026-05-04 14:20 21.24609 11.42159 32830 ft 539 kts 152°
2026-05-04 14:20 21.18205 11.46353 32835 ft 539 kts 152°
2026-05-04 14:21 21.08601 11.52633 32833 ft 539 kts 152°
2026-05-04 14:21 21.02207 11.56816 32831 ft 539 kts 152°
2026-05-04 14:22 20.95800 11.61005 32830 ft 539 kts 152°
2026-05-04 14:22 20.90484 11.64479 32832 ft 539 kts 152°
2026-05-04 14:23 20.80890 11.70738 32829 ft 539 kts 153°
2026-05-04 14:24 20.74535 11.74880 32832 ft 538 kts 153°
2026-05-04 14:24 20.68143 11.79041 32831 ft 537 kts 153°
2026-05-04 14:25 20.61812 11.83159 32832 ft 536 kts 153°
2026-05-04 14:25 20.52257 11.89369 32831 ft 536 kts 153°
2026-05-04 14:26 20.45889 11.93518 32830 ft 536 kts 152°
2026-05-04 14:26 20.39516 11.97671 32831 ft 536 kts 152°
2026-05-04 14:27 20.33158 12.01811 32833 ft 535 kts 152°
2026-05-04 14:27 20.26800 12.05946 32834 ft 535 kts 152°
2026-05-04 14:28 20.20448 12.10072 32833 ft 535 kts 153°
2026-05-04 14:28 20.14082 12.14204 32833 ft 535 kts 153°
2026-05-04 14:29 20.01364 12.22447 32825 ft 534 kts 153°
2026-05-04 14:30 19.95059 12.26527 32830 ft 534 kts 153°
2026-05-04 14:30 19.88700 12.30638 33008 ft 535 kts 153°
2026-05-04 14:31 19.85511 12.32697 33251 ft 535 kts 153°
2026-05-04 14:31 19.79155 12.36792 33728 ft 533 kts 153°
2026-05-04 14:32 19.72819 12.40874 34149 ft 532 kts 153°
2026-05-04 14:32 19.69655 12.42913 34338 ft 531 kts 153°
2026-05-04 14:32 19.66506 12.44942 34536 ft 530 kts 154°
2026-05-04 14:32 19.63352 12.46974 34735 ft 529 kts 154°
2026-05-04 14:33 19.60206 12.48998 34802 ft 531 kts 154°
2026-05-04 14:33 19.53884 12.53064 34824 ft 529 kts 154°
2026-05-04 14:34 19.47600 12.57104 34819 ft 528 kts 154°
2026-05-04 14:34 19.41318 12.61136 34820 ft 528 kts 154°
2026-05-04 14:35 19.35027 12.65171 34804 ft 528 kts 154°
2026-05-04 14:35 19.28786 12.69169 34816 ft 529 kts 154°
2026-05-04 14:36 19.22481 12.73206 34817 ft 529 kts 154°
2026-05-04 14:36 19.16179 12.77238 34816 ft 529 kts 154°
2026-05-04 14:37 19.09881 12.81255 34819 ft 529 kts 154°
2026-05-04 14:37 19.03580 12.85271 34819 ft 529 kts 154°
2026-05-04 14:38 18.97275 12.89292 34816 ft 529 kts 154°
2026-05-04 14:38 18.91322 12.93925 34816 ft 536 kts 142°
2026-05-04 14:39 18.85941 12.99347 34824 ft 538 kts 139°
2026-05-04 14:39 18.80603 13.04876 34817 ft 538 kts 140°
2026-05-04 14:40 18.72515 13.12993 34816 ft 537 kts 141°
2026-05-04 14:40 18.67067 13.18392 34819 ft 537 kts 141°
2026-05-04 14:41 18.61614 13.23796 34821 ft 536 kts 141°
2026-05-04 14:42 18.50776 13.34535 34826 ft 534 kts 141°
2026-05-04 14:42 18.45357 13.39897 34820 ft 534 kts 141°
2026-05-04 14:43 18.39975 13.45218 34826 ft 534 kts 141°
2026-05-04 14:43 18.34550 13.50576 34811 ft 534 kts 141°
2026-05-04 14:44 18.29120 13.55923 34829 ft 534 kts 141°
2026-05-04 14:44 18.23703 13.61254 34824 ft 532 kts 140°
2026-05-04 14:45 18.18294 13.66581 34822 ft 532 kts 140°
2026-05-04 14:45 18.12886 13.71903 34828 ft 532 kts 140°
2026-05-04 14:46 18.07480 13.77220 34823 ft 532 kts 140°
2026-05-04 14:46 18.02065 13.82540 34827 ft 532 kts 140°
2026-05-04 14:47 17.96698 13.87808 34830 ft 532 kts 140°
2026-05-04 14:47 17.91285 13.93117 34813 ft 532 kts 140°
2026-05-04 14:48 17.85875 13.98418 34821 ft 531 kts 140°
2026-05-04 14:48 17.80484 14.03687 34830 ft 531 kts 140°
2026-05-04 14:49 17.75067 14.08946 34822 ft 531 kts 141°
2026-05-04 14:49 17.69642 14.14208 34822 ft 531 kts 140°
2026-05-04 14:50 17.64224 14.19465 34821 ft 531 kts 140°
2026-05-04 14:50 17.58792 14.24732 34823 ft 531 kts 141°
2026-05-04 14:51 17.53360 14.29995 34827 ft 532 kts 141°
2026-05-04 14:51 17.47927 14.35256 34821 ft 532 kts 141°
2026-05-04 14:52 17.42484 14.40520 34825 ft 532 kts 141°
2026-05-04 14:52 17.37045 14.45776 34821 ft 532 kts 141°
2026-05-04 14:53 17.31608 14.51025 34816 ft 532 kts 141°
2026-05-04 14:53 17.26164 14.56268 34816 ft 532 kts 141°
2026-05-04 14:54 17.20744 14.61484 34813 ft 532 kts 141°
2026-05-04 14:54 17.15320 14.66708 34809 ft 529 kts 141°
2026-05-04 14:55 17.09914 14.71910 34811 ft 528 kts 141°
2026-05-04 14:55 17.04503 14.77112 34808 ft 528 kts 141°
2026-05-04 14:56 16.99115 14.82287 34809 ft 528 kts 141°
2026-05-04 14:56 16.93706 14.87477 34809 ft 528 kts 141°
2026-05-04 14:57 16.88289 14.92666 34811 ft 528 kts 141°
2026-05-04 14:57 16.82868 14.97858 34799 ft 528 kts 141°
2026-05-04 14:58 16.77474 15.03025 34802 ft 524 kts 141°
2026-05-04 14:58 16.73011 15.07296 34804 ft 524 kts 141°
2026-05-04 14:59 16.66757 15.13274 34803 ft 524 kts 141°
2026-05-04 15:00 16.58695 15.20974 34802 ft 524 kts 141°
2026-05-04 15:00 16.53313 15.26109 34801 ft 524 kts 141°
2026-05-04 15:01 16.45248 15.33796 34793 ft 523 kts 140°
2026-05-04 15:01 16.39894 15.38896 34795 ft 521 kts 140°
2026-05-04 15:02 16.34540 15.43990 34793 ft 521 kts 140°
2026-05-04 15:02 16.29217 15.49040 34793 ft 521 kts 140°
2026-05-04 15:03 16.23854 15.54127 34789 ft 521 kts 140°
2026-05-04 15:03 16.18498 15.59209 34790 ft 521 kts 140°
2026-05-04 15:04 16.13139 15.64293 34787 ft 521 kts 140°
2026-05-04 15:04 16.07778 15.69375 34788 ft 519 kts 140°
2026-05-04 15:05 16.02478 15.74397 34788 ft 514 kts 140°
2026-05-04 15:05 15.97176 15.79413 34772 ft 516 kts 140°
2026-05-04 15:06 15.91873 15.84428 34785 ft 516 kts 140°
2026-05-04 15:07 15.83943 15.91920 34785 ft 516 kts 140°
2026-05-04 15:07 15.78625 15.96940 34787 ft 515 kts 140°
2026-05-04 15:08 15.73314 16.01948 34783 ft 516 kts 140°
2026-05-04 15:08 15.68009 16.06940 34781 ft 514 kts 140°
2026-05-04 15:09 15.63632 16.11055 34786 ft 514 kts 140°
2026-05-04 15:09 15.58335 16.16038 34781 ft 514 kts 140°
2026-05-04 15:10 15.49532 16.24316 34781 ft 514 kts 140°
2026-05-04 15:11 15.42442 16.30976 34776 ft 514 kts 140°
2026-05-04 15:11 15.37145 16.35948 34764 ft 514 kts 140°
2026-05-04 15:12 15.31843 16.40920 34771 ft 515 kts 140°
2026-05-04 15:12 15.26528 16.45901 34769 ft 515 kts 140°
2026-05-04 15:13 15.21252 16.50843 34769 ft 515 kts 140°
2026-05-04 15:13 15.15947 16.55808 34768 ft 515 kts 140°
2026-05-04 15:14 15.10622 16.60787 34766 ft 515 kts 140°
2026-05-04 15:14 15.05306 16.65745 34768 ft 515 kts 140°
2026-05-04 15:15 14.99987 16.70704 34763 ft 515 kts 140°
2026-05-04 15:15 14.94674 16.75662 34767 ft 515 kts 140°
2026-05-04 15:16 14.86697 16.83099 34761 ft 515 kts 140°
2026-05-04 15:17 14.78741 16.90510 34757 ft 515 kts 140°
2026-05-04 15:17 14.70744 16.97951 34752 ft 515 kts 140°
2026-05-04 15:18 14.65426 17.02893 34753 ft 515 kts 140°
2026-05-04 15:19 14.57441 17.10300 34749 ft 513 kts 140°
2026-05-04 15:19 14.49482 17.17683 34745 ft 513 kts 140°
2026-05-04 15:20 14.44207 17.22574 34746 ft 513 kts 140°
2026-05-04 15:20 14.38900 17.27490 34740 ft 513 kts 140°
2026-05-04 15:21 14.33591 17.32406 34740 ft 513 kts 140°
2026-05-04 15:22 14.25627 17.39773 34732 ft 513 kts 139°
2026-05-04 15:22 14.17641 17.47153 34732 ft 514 kts 139°
2026-05-04 15:23 14.12316 17.52069 34732 ft 514 kts 140°
2026-05-04 15:23 14.06991 17.56984 34732 ft 514 kts 140°
2026-05-04 15:24 13.96361 17.66768 34729 ft 514 kts 140°
2026-05-04 15:25 13.91063 17.71645 34730 ft 514 kts 140°
2026-05-04 15:26 13.83069 17.79001 34726 ft 515 kts 140°
2026-05-04 15:26 13.75065 17.86360 34726 ft 514 kts 140°
2026-05-04 15:27 13.67060 17.93712 34723 ft 515 kts 140°
2026-05-04 15:28 13.59042 18.01069 34724 ft 515 kts 140°
2026-05-04 15:29 13.51021 18.08421 34722 ft 514 kts 140°
2026-05-04 15:30 13.32365 18.25481 34723 ft 514 kts 140°
2026-05-04 15:31 13.24356 18.32800 34721 ft 513 kts 140°
2026-05-04 15:32 13.11029 18.44964 34723 ft 510 kts 139°
2026-05-04 15:34 12.97757 18.57059 34724 ft 511 kts 139°
2026-05-04 15:34 12.89786 18.64314 34721 ft 511 kts 139°
2026-05-04 15:35 12.81812 18.71562 34724 ft 511 kts 140°
2026-05-04 15:36 12.73864 18.78774 34723 ft 506 kts 139°
2026-05-04 15:36 12.68625 18.83530 34723 ft 507 kts 139°
2026-05-04 15:37 12.63354 18.88314 34726 ft 507 kts 139°
2026-05-04 15:37 12.58074 18.93102 34726 ft 507 kts 139°
2026-05-04 15:38 12.52797 18.97882 34726 ft 507 kts 140°
2026-05-04 15:38 12.47512 19.02667 34726 ft 507 kts 139°
2026-05-04 15:39 12.42256 19.07425 34726 ft 506 kts 139°
2026-05-04 15:40 12.34336 19.14590 34731 ft 506 kts 139°
2026-05-04 15:40 12.29055 19.19365 34732 ft 507 kts 139°
2026-05-04 15:41 12.23805 19.24109 34732 ft 507 kts 139°
2026-05-04 15:41 12.18518 19.28883 34732 ft 507 kts 139°
2026-05-04 15:42 12.13230 19.33656 34734 ft 507 kts 139°
2026-05-04 15:42 12.07949 19.38419 34734 ft 507 kts 139°
2026-05-04 15:43 12.02667 19.43181 34733 ft 506 kts 139°
2026-05-04 15:43 11.97387 19.47939 34734 ft 506 kts 139°
2026-05-04 15:44 11.92112 19.52686 34732 ft 505 kts 139°
2026-05-04 15:44 11.86837 19.57426 34732 ft 505 kts 139°
2026-05-04 15:45 11.81563 19.62168 34732 ft 505 kts 139°
2026-05-04 15:45 11.76289 19.66910 34732 ft 505 kts 139°
2026-05-04 15:46 11.71053 19.71616 34732 ft 505 kts 139°
2026-05-04 15:46 11.65780 19.76351 34731 ft 504 kts 139°
2026-05-04 15:47 11.60503 19.81055 34735 ft 503 kts 139°
2026-05-04 15:47 11.55220 19.85730 34734 ft 502 kts 139°
2026-05-04 15:48 11.49930 19.90408 34734 ft 502 kts 139°
2026-05-04 15:48 11.42010 19.97415 34734 ft 502 kts 139°
2026-05-04 15:49 11.36728 20.02086 34735 ft 502 kts 139°
2026-05-04 15:49 11.31449 20.06751 34735 ft 502 kts 139°
2026-05-04 15:50 11.26226 20.11365 34734 ft 500 kts 139°
2026-05-04 15:50 11.20972 20.16005 34732 ft 499 kts 139°
2026-05-04 15:51 11.15723 20.20636 34735 ft 500 kts 139°
2026-05-04 15:51 11.10472 20.25269 34733 ft 500 kts 139°
2026-05-04 15:52 11.05206 20.29911 34736 ft 499 kts 139°
2026-05-04 15:52 10.99942 20.34547 34740 ft 500 kts 139°
2026-05-04 15:53 10.94669 20.39183 34740 ft 501 kts 139°
2026-05-04 15:53 10.89416 20.43805 34739 ft 498 kts 139°
2026-05-04 15:54 10.84203 20.48392 34740 ft 499 kts 139°
2026-05-04 15:54 10.78948 20.53013 34740 ft 499 kts 139°
2026-05-04 15:55 10.73693 20.57633 34744 ft 500 kts 139°
2026-05-04 15:55 10.69307 20.61486 34743 ft 501 kts 139°
2026-05-04 15:56 10.63185 20.66863 34740 ft 500 kts 139°
2026-05-04 15:56 10.57914 20.71490 34737 ft 501 kts 139°
2026-05-04 15:57 10.53494 20.75368 34747 ft 501 kts 139°
2026-05-04 15:57 10.48259 20.79959 34746 ft 499 kts 140°
2026-05-04 15:58 10.42999 20.84569 34745 ft 499 kts 139°
2026-05-04 15:58 10.37742 20.89174 34748 ft 498 kts 139°
2026-05-04 15:59 10.32489 20.93768 34749 ft 498 kts 139°
2026-05-04 15:59 10.27226 20.98372 34749 ft 499 kts 139°
2026-05-04 16:00 10.21979 21.02962 34750 ft 498 kts 139°
2026-05-04 16:00 10.16748 21.07537 34751 ft 499 kts 139°
2026-05-04 16:01 10.11494 21.12130 34751 ft 498 kts 139°
2026-05-04 16:01 10.06241 21.16720 34751 ft 499 kts 139°
2026-05-04 16:02 10.00979 21.21316 34756 ft 498 kts 139°
2026-05-04 16:03 9.93102 21.28192 34757 ft 498 kts 139°
2026-05-04 16:03 9.87839 21.32783 34759 ft 500 kts 139°
2026-05-04 16:04 9.82580 21.37369 34752 ft 497 kts 140°
2026-05-04 16:04 9.74718 21.44221 34756 ft 497 kts 140°
2026-05-04 16:05 9.69469 21.48787 34759 ft 496 kts 140°
2026-05-04 16:06 9.61612 21.55623 34755 ft 496 kts 140°
2026-05-04 16:07 9.51171 21.64755 34762 ft 496 kts 139°
2026-05-04 16:08 9.40900 21.74042 34762 ft 497 kts 138°
2026-05-04 16:09 9.28019 21.85678 34765 ft 498 kts 139°
2026-05-04 16:10 9.17661 21.95019 34767 ft 497 kts 139°
2026-05-04 16:11 9.07312 22.04344 34770 ft 497 kts 138°
2026-05-04 16:12 8.91834 22.18279 34775 ft 496 kts 138°
2026-05-04 16:13 8.81497 22.27566 34784 ft 496 kts 138°
2026-05-04 16:14 8.71176 22.36840 34789 ft 495 kts 138°
2026-05-04 16:16 8.58293 22.48408 34805 ft 495 kts 138°
2026-05-04 16:17 8.45435 22.59942 34811 ft 494 kts 138°
2026-05-04 16:18 8.35146 22.69163 34814 ft 494 kts 138°
2026-05-04 16:19 8.22321 22.80641 34809 ft 494 kts 138°
2026-05-04 16:20 8.13845 22.86432 34811 ft 493 kts 158°
2026-05-04 16:20 8.07353 22.88709 34807 ft 494 kts 162°
2026-05-04 16:22 7.91143 22.94417 34804 ft 493 kts 159°
2026-05-04 16:23 7.71867 23.01608 34804 ft 493 kts 159°
2026-05-04 16:25 7.52583 23.08776 34801 ft 493 kts 159°
2026-05-04 16:26 7.30107 23.17120 34805 ft 491 kts 159°
2026-05-04 16:28 7.14128 23.23048 34809 ft 489 kts 158°
2026-05-04 16:29 6.91760 23.31340 34807 ft 492 kts 159°
2026-05-04 16:31 6.75700 23.37289 34807 ft 492 kts 159°
2026-05-04 16:32 6.56469 23.44406 34806 ft 492 kts 158°
2026-05-04 16:33 6.43625 23.49155 34805 ft 492 kts 159°
2026-05-04 16:34 6.33997 23.52712 34802 ft 491 kts 158°
2026-05-04 16:35 6.17824 23.58689 34799 ft 491 kts 159°
2026-05-04 16:36 6.08194 23.62244 34803 ft 491 kts 159°
2026-05-04 16:37 5.98563 23.65799 34805 ft 491 kts 159°
2026-05-04 16:38 5.85755 23.70525 34799 ft 492 kts 158°
2026-05-04 16:39 5.69753 23.76469 34809 ft 491 kts 155°
2026-05-04 16:40 5.63941 23.79970 34804 ft 487 kts 138°
2026-05-04 16:40 5.59534 23.85082 34804 ft 485 kts 123°
2026-05-04 16:41 5.50067 23.99119 34804 ft 486 kts 125°
2026-05-04 16:43 5.40704 24.11847 34804 ft 486 kts 125°
2026-05-04 16:43 5.34682 24.20036 34798 ft 486 kts 125°
2026-05-04 16:45 5.22675 24.36369 34807 ft 486 kts 125°
2026-05-04 16:46 5.12639 24.49987 34810 ft 485 kts 126°
2026-05-04 16:47 5.04591 24.60853 34806 ft 485 kts 126°
2026-05-04 16:48 4.96539 24.71727 34809 ft 485 kts 126°
2026-05-04 16:49 4.88490 24.82621 35217 ft 486 kts 125°
2026-05-04 16:50 4.84481 24.88061 35653 ft 484 kts 125°
2026-05-04 16:50 4.80482 24.93485 36105 ft 482 kts 125°
2026-05-04 16:51 4.76497 24.98888 36516 ft 481 kts 125°
2026-05-04 16:51 4.74535 25.01548 36734 ft 480 kts 125°
2026-05-04 16:52 4.66560 25.12356 36817 ft 479 kts 125°
2026-05-04 16:53 4.59865 25.19778 36812 ft 482 kts 142°
2026-05-04 16:54 4.48559 25.26938 36820 ft 484 kts 146°
2026-05-04 16:55 4.31644 25.37992 36820 ft 484 kts 145°
2026-05-04 16:56 4.17574 25.47264 36823 ft 484 kts 145°
2026-05-04 16:57 4.09140 25.52817 36827 ft 484 kts 145°
2026-05-04 16:58 3.97897 25.60217 36825 ft 485 kts 145°
2026-05-04 17:00 3.80975 25.71348 36828 ft 484 kts 145°
2026-05-04 17:01 3.66953 25.80568 36812 ft 485 kts 146°
2026-05-04 17:02 3.55670 25.87984 36830 ft 485 kts 145°
2026-05-04 17:03 3.47211 25.93547 36831 ft 485 kts 146°
2026-05-04 17:03 3.38756 25.99103 36839 ft 484 kts 146°
2026-05-04 17:04 3.27490 26.06504 36840 ft 484 kts 146°
2026-05-04 17:05 3.16226 26.13899 36838 ft 484 kts 146°
2026-05-04 17:06 3.07818 26.19420 36841 ft 484 kts 146°
2026-05-04 17:07 3.00278 26.24369 36844 ft 484 kts 146°
2026-05-04 17:07 2.93700 26.28687 36848 ft 484 kts 146°
2026-05-04 17:08 2.85257 26.34228 36847 ft 484 kts 146°
2026-05-04 17:09 2.79703 26.37873 36850 ft 484 kts 146°
2026-05-04 17:09 2.74077 26.41564 36850 ft 484 kts 146°
2026-05-04 17:10 2.59981 26.50811 36857 ft 485 kts 146°
2026-05-04 17:11 2.54342 26.54509 36859 ft 485 kts 146°
2026-05-04 17:12 2.45876 26.60059 36857 ft 485 kts 146°
2026-05-04 17:13 2.31767 26.69308 36858 ft 485 kts 146°
2026-05-04 17:14 2.20464 26.76718 36859 ft 485 kts 146°
2026-05-04 17:15 2.11990 26.82271 36853 ft 485 kts 146°
2026-05-04 17:16 2.00637 26.89495 36857 ft 485 kts 147°
2026-05-04 17:17 1.89201 26.96640 36855 ft 484 kts 147°
2026-05-04 17:18 1.77777 27.03795 36859 ft 484 kts 147°
2026-05-04 17:19 1.66390 27.11008 36859 ft 484 kts 146°
2026-05-04 17:20 1.55061 27.18305 36859 ft 484 kts 146°
2026-05-04 17:20 1.46565 27.23768 36857 ft 484 kts 146°
2026-05-04 17:21 1.35272 27.31027 36859 ft 484 kts 146°
2026-05-04 17:22 1.29612 27.34665 36859 ft 483 kts 146°
2026-05-04 17:23 1.18264 27.41959 36857 ft 483 kts 146°
2026-05-04 17:24 1.09840 27.47372 36861 ft 483 kts 146°
2026-05-04 17:25 0.98524 27.54632 36863 ft 482 kts 147°
2026-05-04 17:26 0.87072 27.61611 36864 ft 482 kts 147°
2026-05-04 17:27 0.72736 27.70291 36863 ft 482 kts 147°
2026-05-04 17:28 0.62258 27.76646 36862 ft 479 kts 147°
2026-05-04 17:29 0.45210 27.86985 36866 ft 478 kts 147°
2026-05-04 17:31 0.30999 27.95639 36876 ft 477 kts 146°
2026-05-04 17:32 0.17009 28.04400 36876 ft 475 kts 146°
2026-05-04 17:33 0.05810 28.11407 36887 ft 474 kts 146°
2026-05-04 17:34 -0.05369 28.18400 36897 ft 475 kts 146°
2026-05-04 17:35 -0.19332 28.27135 36903 ft 475 kts 146°
2026-05-04 17:36 -0.24931 28.30637 36901 ft 474 kts 146°
2026-05-04 17:36 -0.30526 28.34138 36919 ft 474 kts 146°
2026-05-04 17:37 -0.36121 28.37638 36918 ft 475 kts 146°
2026-05-04 17:37 -0.41731 28.41148 36925 ft 476 kts 146°
2026-05-04 17:38 -0.47355 28.44666 36935 ft 476 kts 146°
2026-05-04 17:38 -0.52975 28.48182 36935 ft 476 kts 146°
2026-05-04 17:39 -0.61384 28.53444 36940 ft 477 kts 146°
2026-05-04 17:39 -0.66969 28.56938 36962 ft 477 kts 146°
2026-05-04 17:40 -0.72597 28.60459 36969 ft 477 kts 147°
2026-05-04 17:40 -0.78224 28.63980 36972 ft 477 kts 147°
2026-05-04 17:41 -0.83842 28.67495 36997 ft 476 kts 147°
2026-05-04 17:41 -0.89458 28.71009 36999 ft 475 kts 147°
2026-05-04 17:42 -0.95069 28.74519 37003 ft 474 kts 147°
2026-05-04 17:42 -1.00661 28.78019 37006 ft 474 kts 147°
2026-05-04 17:43 -1.06217 28.81512 37030 ft 475 kts 147°
2026-05-04 17:43 -1.11803 28.85032 37034 ft 474 kts 147°
2026-05-04 17:44 -1.17388 28.88551 37033 ft 475 kts 147°
2026-05-04 17:44 -1.22992 28.92082 36789 ft 478 kts 147°
2026-05-04 17:45 -1.25807 28.93855 36490 ft 478 kts 147°
2026-05-04 17:45 -1.28615 28.95624 36099 ft 478 kts 146°
2026-05-04 17:45 -1.31437 28.97402 35586 ft 479 kts 146°
2026-05-04 17:45 -1.34264 28.99184 35074 ft 480 kts 146°
2026-05-04 17:46 -1.37101 29.00971 34587 ft 483 kts 146°
2026-05-04 17:46 -1.39953 29.02769 34089 ft 485 kts 146°
2026-05-04 17:46 -1.42799 29.04599 33527 ft 486 kts 144°
2026-05-04 17:46 -1.45540 29.06568 32981 ft 487 kts 141°
2026-05-04 17:47 -1.48225 29.08645 32449 ft 487 kts 140°
2026-05-04 17:47 -1.50876 29.10761 31916 ft 488 kts 140°
2026-05-04 17:47 -1.53522 29.12889 31397 ft 489 kts 140°
2026-05-04 17:47 -1.56185 29.15023 30889 ft 490 kts 140°
2026-05-04 17:48 -1.58847 29.17144 30328 ft 491 kts 140°
2026-05-04 17:48 -1.61514 29.19258 29692 ft 488 kts 140°
2026-05-04 17:48 -1.64167 29.21359 29118 ft 483 kts 139°
2026-05-04 17:48 -1.66641 29.23587 28538 ft 477 kts 131°
2026-05-04 17:49 -1.68602 29.26176 27966 ft 469 kts 119°
2026-05-04 17:49 -1.69960 29.29117 27406 ft 463 kts 109°
2026-05-04 17:49 -1.70904 29.32180 26852 ft 459 kts 104°
2026-05-04 17:49 -1.71712 29.35258 26290 ft 455 kts 104°
2026-05-04 17:50 -1.72515 29.38309 25760 ft 451 kts 105°
2026-05-04 17:50 -1.73355 29.41320 25202 ft 448 kts 105°
2026-05-04 17:50 -1.74231 29.44291 24662 ft 444 kts 107°
2026-05-04 17:50 -1.75128 29.47226 24120 ft 439 kts 106°
2026-05-04 17:51 -1.75907 29.50170 23568 ft 437 kts 103°
2026-05-04 17:51 -1.76532 29.53123 22920 ft 432 kts 101°
2026-05-04 17:51 -1.77084 29.56065 22319 ft 429 kts 101°
2026-05-04 17:51 -1.77611 29.58983 21748 ft 425 kts 101°
2026-05-04 17:52 -1.78134 29.61884 21199 ft 422 kts 101°
2026-05-04 17:52 -1.78660 29.64758 20647 ft 419 kts 101°
2026-05-04 17:52 -1.79186 29.67604 20094 ft 416 kts 101°
2026-05-04 17:52 -1.79714 29.70432 19555 ft 412 kts 101°
2026-05-04 17:53 -1.80240 29.73240 19009 ft 409 kts 101°
2026-05-04 17:53 -1.80764 29.76033 18476 ft 407 kts 101°
2026-05-04 17:53 -1.81285 29.78803 17872 ft 404 kts 101°
2026-05-04 17:53 -1.81802 29.81553 17311 ft 400 kts 101°
2026-05-04 17:54 -1.82307 29.84241 16775 ft 396 kts 101°
2026-05-04 17:54 -1.82814 29.86936 16255 ft 393 kts 101°
2026-05-04 17:54 -1.83317 29.89610 15736 ft 390 kts 101°
2026-05-04 17:54 -1.83816 29.92263 15231 ft 387 kts 101°
2026-05-04 17:55 -1.84309 29.94892 14735 ft 384 kts 101°
2026-05-04 17:55 -1.84801 29.97511 14254 ft 382 kts 101°
2026-05-04 17:55 -1.85291 30.00117 13735 ft 379 kts 101°
2026-05-04 17:55 -1.85773 30.02688 13314 ft 375 kts 101°
2026-05-04 17:56 -1.86255 30.05254 12944 ft 374 kts 101°
2026-05-04 17:56 -1.86726 30.07763 12572 ft 371 kts 101°
2026-05-04 17:56 -1.87200 30.10287 12266 ft 368 kts 101°
2026-05-04 17:56 -1.87671 30.12799 12186 ft 368 kts 101°
2026-05-04 17:57 -1.88144 30.15319 12173 ft 368 kts 101°
2026-05-04 17:57 -1.88573 30.17762 12157 ft 339 kts 98°
2026-05-04 17:57 -1.88853 30.20008 11989 ft 314 kts 97°
2026-05-04 17:57 -1.89062 30.22083 11642 ft 294 kts 96°
2026-05-04 17:58 -1.89252 30.24089 11277 ft 282 kts 96°
2026-05-04 17:58 -1.89433 30.26017 10933 ft 275 kts 96°
2026-05-04 17:58 -1.89611 30.27903 10591 ft 270 kts 96°
2026-05-04 17:58 -1.89817 30.29752 10220 ft 265 kts 101°
2026-05-04 17:59 -1.90415 30.31484 9701 ft 265 kts 122°
2026-05-04 17:59 -1.91670 30.32804 9244 ft 263 kts 147°
2026-05-04 17:59 -1.94835 30.33211 8644 ft 203 kts 194°
2026-05-04 18:00 -1.96109 30.32764 8167 ft 190 kts 198°
2026-05-04 18:00 -1.97335 30.32261 7892 ft 191 kts 204°
2026-05-04 18:00 -1.98426 30.31486 7649 ft 195 kts 224°
2026-05-04 18:00 -1.99149 30.30355 7536 ft 195 kts 248°
2026-05-04 18:01 -1.99352 30.29027 7549 ft 200 kts 272°
2026-05-04 18:01 -1.99238 30.27615 7298 ft 201 kts 275°
2026-05-04 18:01 -1.99048 30.26247 7046 ft 200 kts 279°
2026-05-04 18:02 -1.98559 30.23500 6514 ft 201 kts 279°
2026-05-04 18:02 -1.98318 30.22133 6298 ft 201 kts 279°
2026-05-04 18:02 -1.98076 30.20764 6027 ft 199 kts 279°
2026-05-04 18:02 -1.97839 30.19426 5781 ft 192 kts 280°
2026-05-04 18:03 -1.97609 30.18121 5428 ft 186 kts 281°
2026-05-04 18:03 -1.97381 30.16849 5194 ft 185 kts 281°
2026-05-04 18:03 -1.97166 30.15589 4920 ft 183 kts 281°
2026-05-04 18:03 -1.96964 30.14523 4896 ft 125 kts 280°
2026-05-04 18:04 -1.96858 30.13936 4912 ft 56 kts 278°
2026-05-04 18:04 -1.96815 30.13682 4911 ft 22 kts 280°
2026-05-04 18:04 -1.96773 30.13415 4916 ft 17 kts 283°
2026-05-04 18:05 -1.96710 30.13356 4915 ft 9 kts
2026-05-04 18:05 -1.96696 30.13357 4914 ft 0 kts
2026-05-04 18:06 -1.96639 30.13370 4915 ft 5 kts 32°
2026-05-04 18:06 -1.96581 30.13468 4913 ft 19 kts 62°
2026-05-04 18:06 -1.96523 30.13568 4912 ft 13 kts 68°
2026-05-04 18:07 -1.96520 30.13582 4910 ft 0 kts 79°
2026-05-04 18:08 -1.96507 30.13599 4913 ft 0 kts 70°